Preview of NWS' New Version of Forecast
This preview is not operational and should not be used for support decisions.

Regional Weather Roundup (RWR)

Issued by Austin/San Antonio, TX (EWX)

                            
000
ASUS44 KEWX 200911
RWREWX
SOUTH TEXAS REGIONAL WEATHER ROUNDUP
NATIONAL WEATHER SERVICE AUSTIN/SAN ANTONIO TX
300 AM CST WED FEB 20 2019

NOTE: "FAIR" INDICATED FEW OR NO CLOUDS BELOW 12,000 FEET WITH NO
SIGNIFICANT WEATHER AND/OR OBSTRUCTIONS TO VISIBILITY.

* - THESE STATIONS ARE NOT NWS OR FAA STATIONS...AND ARE NOT SUBJECT
    TO NWS AND FAA QUALITY CONTROL.
 
TXZ171-172-183>190-201000-
TEXAS HILL COUNTRY AND EDWARDS PLATEAU
  
CITY           SKY/WX    TMP DP  RH WIND       PRES   REMARKS
JUNCTION       CLOUDY    35  32  88 CALM      29.98R                  
*LLANO         CLOUDY    39  36  87 NW8       30.00S WCI  34          
BURNET         CLOUDY    38  36  92 NW13G22   29.94F WCI  30          
*HORSESHOE BAY CLOUDY    40  39  96 NW6       29.95S WCI  36          
*KERRVILLE     PTCLDY    36  33  90 NW6       29.94S WCI  31          
*FREDERICKSBRG CLOUDY    36  34  92 NW7       29.95R WCI  31          
*ROCKSPRINGS   CLOUDY    32  32 100 NE3       29.98S FOG              
*BOERNE STAGE  CLEAR     37  34  87 N6        29.94R WCI  33          
*CASTROVILLE   CLEAR     41  37  86 NW5       29.97R WCI  38          
HONDO          CLEAR     41  37  86 N6        29.96R WCI  37          
*UVALDE        CLEAR     38  37  96 W6        29.98S WCI  33          
DEL RIO        PTCLDY    37  34  89 NW3       30.00S                  
LAUGHLIN AFB   PTCLDY    35  33  89 CALM      30.00R                  
CARRIZO SPRGS  PTCLDY    41  41 100 NW5       29.99R WCI  38          
*FAITH RANCH   CLOUDY    45  41  87 N8        29.98S WCI  40          
$$

TXZ173-191>194-202-209-217>225-228-201000-
CENTRAL AND SOUTH CENTRAL TEXAS
  
CITY           SKY/WX    TMP DP  RH WIND       PRES   REMARKS
GEORGETOWN     CLOUDY    40  38  93 NW7       29.95F WCI  35          
AUSTIN/BERGSTM CLOUDY    44  39  82 N7        29.93F WCI  40          
AUSTIN/MABRY   CLOUDY    42  39  89 CALM      29.94F                  
*AUSTIN/EXEC   CLOUDY    41  39  93 N8        29.94F WCI  36          
*LAGO VISTA    PTCLDY    39  37  92 NW9       29.93S WCI  33          
SAN MARCOS     CLOUDY    42  40  92 N5        29.95S WCI  39          
NEW BRAUNFELS  CLOUDY    43  39  86 N7        29.93S WCI  39          
RANDOLPH AFB   CLOUDY    43  39  86 N6        29.94S WCI  40          
PT SAN ANTONIO PTCLDY    43  39  87 NW3       29.94R                  
SAN ANTONIO    MOCLDY    42  37  82 NW6       29.94S WCI  38          
STINSON FIELD  CLOUDY    45  37  73 CALM      29.94R                  
*LA GRANGE     CLOUDY    44  44 100 N3        29.93S                  
*GIDDINGS      CLOUDY    44  43  96 N6        29.94S WCI  41          
*GONZALES      CLOUDY    43  42  96 N5        29.95S WCI  41          
$$

TXZ163>164-176>182-195>201-210>213-226-227-235-201000-
SOUTHEAST TEXAS
  
CITY           SKY/WX    TMP DP  RH WIND       PRES   REMARKS
COLLEGE STN    CLOUDY    42  42 100 NW7       29.93R WCI  38          
*BRYAN         CLOUDY    41  41 100 NW5       29.94S WCI  38          
*CALDWELL      CLOUDY    42  40  94 N7        29.94S WCI  37          
*CROCKETT        N/A     41  39  93 NW5       29.95R FOG     WCI  38  
*BRENHAM       CLOUDY    43  43 100 NW10      29.95R WCI  37          
HUNTSVILLE     CLOUDY    41  41 100 NW6       29.91R WCI  37          
CONROE         CLOUDY    44  44 100 NW8       29.91R WCI  39          
HOUSTON BUSH   LGT RAIN  46  46 100 NW7       29.90R FOG     WCI  42  
HOUSTON HOBBY  DRIZZLE   47  45  93 NW10      29.89R WCI  42          
*HOUSTON SW AP CLOUDY    45  45  99 N12       29.91R WCI  39          
PEARLAND       CLOUDY    48  48 100 NW10      29.90R WCI  43          
HOUSTON HOOKS  LGT RAIN  45  44  97 NW7       29.91R FOG     WCI  41  
ELLINGTON FLD  CLOUDY    46  46 100 NW12      29.90R WCI  41          
SUGAR LAND     CLOUDY    47  44  90 N9        29.90R WCI  43          
*HOUSTON EXEC  DRIZZLE   45  45 100 NW9       29.93R WCI  40          
*CLEVELAND MUN LGT RAIN  46  46 100 N7        29.91R WCI  42          
*WHARTON       CLOUDY    44  42  94 NW10      29.92F WCI  38          
*COLUMBUS      DRIZZLE   43  40  91 NW7       29.94R WCI  39          
*EAGLE LAKE    DRIZZLE   43  42  97 N8        29.93  WCI  38          
$$

TXZ214>216-236>238-201000-
THE UPPER TEXAS COAST
  
CITY           SKY/WX    TMP DP  RH WIND       PRES   REMARKS
*ORANGE        CLOUDY    53  53 100 NW5       29.85R FOG              
PORT ARTHUR    LGT RAIN  53  51  93 NW9       29.83R FOG              
GALVESTON      CLOUDY    50  47  89 NW16G25   29.87R WCI  44          
ANGLETON       CLOUDY    47  45  93 N12G20    29.88R WCI  42          
*BAY CITY      DRIZZLE   46  46  99 N8        29.90R WCI  42          
PALACIOS       LGT RAIN  47  46  97 N21       29.90S WCI  39          
$$

TXZ229>234-239>247-201000-
TEXAS COASTAL BEND AND RIO GRANDE PLAINS
  
CITY           SKY/WX    TMP DP  RH WIND       PRES   REMARKS
VICTORIA       CLOUDY    44  42  93 NW9       29.93S WCI  39          
*BEEVILLE      CLOUDY    47  43  84 N9        29.95R WCI  43          
ROCKPORT       LGT RAIN  45  44  97 N18       29.91F FOG     WCI  37  
*PORT ARANSAS  LGT RAIN  46  45  96 N21       29.92S WCI  39          
*PORT LAVACA   NOT AVBL                                               
*INGLESIDE     CLOUDY    46  43  91 N16G22    29.92S FOG     WCI  39  
CORPUS CHRISTI DRIZZLE   46  43  89 N18       29.92S FOG     WCI  39  
CORPUS NAS     CLOUDY    48 N/A N/A N22G30    29.91R WCI  41          
*ROBSTOWN      NOT AVBL                                               
ALICE          CLOUDY    45  43  93 N17       29.93S WCI  38          
KINGSVILLE NAS LGT RAIN  46  44  93 N10       29.94R FOG     WCI  41  
COTULLA        CLEAR     42  42 100 NW7       29.97R WCI  38          
LAREDO         CLOUDY    49  46  90 N6        29.96R WCI  46          
$$

TXZ248>255-201000-
DEEP SOUTH TEXAS
  
CITY           SKY/WX    TMP DP  RH WIND       PRES   REMARKS
BROWNSVILLE    LGT RAIN  53  53 100 NW15      29.87R                  
PORT ISABEL    LGT RAIN  51  50  96 N18       29.87R FOG              
HARLINGEN      CLOUDY    50  48  93 N22       29.89R FOG     WCI  43  
*HEBBRONVILLE  CLOUDY    45  44  97 CALM      29.94S FOG              
MCALLEN        LGT RAIN  51  51 100 N12       29.92R FOG              
*WESLACO       CLOUDY    48  47  95 N15G21    29.90  FOG     WCI  43  
FALFURRIAS     CLOUDY    47  44  90 N10       29.94R WCI  42          
EDINBURG       CLOUDY    50  48  93 N10       29.92R FOG     WCI  45  
*ZAPATA        CLOUDY    48  46  95 N7        29.96R WCI  45          
$$

TXZ213>215-236>238-242>244-246-247-251-254-255-201000-
CMAN STATIONS
  
STATION/POSITION TIME  TEMP    WIND        PRES    WAVE
                       AIR SEA DIR/SP/G            HT/PER
                 (UTC) (F)     (DEG/KT/KT) (MB)    (FT/S)
SABINE PASS      0842   55 60  300/  5/  6 1011.3
SEA RIM ST PARK  0900   53     320/  9/ 10 1010.2
NORTH JETTY/GLS  0842   51 58  330/ 18/ 20 1010.2
EAGLE POINT      0842   49 57  340/  6/ 11 1011.5
MORGANS POINT    0842   49 58  320/ 14/ 16 1011.5
PORT O'CONNOR    0842   47 55  330/ 21/ 25 1012.2
PORT ARANSAS     0900   46 58  340/ 18/ 21 1012.3
MALAQUITE BEACH  0842   46 59  320/ 18/ 22 1012.2
BAFFIN BAY       0842   46 58  330/ 19/ 25 1013.2
PORT ISABEL      0842   54 62  340/ 17/ 21 1010.8
$$